Weather History for KWWD - July, 2014

Change the Weather History Date:

Saturday, July 26, 2014

  Actual Average (KGED) Record (KGED)
Temperature  
Mean Temperature 70 °F 77 °F  
Max Temperature 78 °F 86 °F 97 °F (2012)
Min Temperature 62 °F 68 °F 49 °F (1976)
Degree Days  
Heating Degree Days 0 0  
Month to date heating degree days 0  
Since 1 June heating degree days 13  
Since 1 July heating degree days 0  
Cooling Degree Days 5 12  
Month to date cooling degree days 307  
Year to date cooling degree days 640  
Since 1 June cooling degree days 546  
Growing Degree Days 20 (Base 50)    
Moisture  
Dew Point 63 °F    
Average Humidity 76    
Maximum Humidity 88    
Minimum Humidity 61    
Precipitation  
Precipitation 0.01 in 0.12 in 3.40 in (1965)
Month to date precipitation 3.52  
Year to date precipitation 25.07  
Sea Level Pressure  
Sea Level Pressure 29.99 in    
Wind  
Wind Speed 5 mph (South)    
Max Wind Speed 12 mph    
Max Gust Speed -    
Visibility 10 miles    
Events      
T = Trace of Precipitation, MM = Missing Value Source: NWS Daily Summary

Daily Weather History Graph

Daily Weather History Graph

Search for Another Location

Airport or City:

Trip Planner

Search our weather history database for the weather conditions in past years. The results will help you decide how hot, cold, wet, or windy it might be!

Date:

Astronomy

Jul. 26, 2014 Rise Set
Actual Time 5:55 AM EDT 8:16 PM EDT
Civil Twilight 5:24 AM EDT 8:46 PM EDT
Nautical Twilight 4:47 AM EDT 9:24 PM EDT
Astronomical Twilight 4:06 AM EDT 10:05 PM EDT
Moon 5:44 AM EDT (7/26) 7:50 PM EDT (7/26)
Length of Visible Light 15h 22m
Length of Day
14h 21m
Waning Crescent, 0% of the Moon is Illuminated
Jul 26
Waning Crescent
Jul 26
New
Aug 3
First Quarter
Aug 10
Full
Aug 17
Last Quarter

Hourly Weather History & Observations

Time (EDT) Temp. Dew Point Humidity Pressure Visibility Wind Dir Wind Speed Gust Speed Precip Events Conditions
12:15 AM 68.0 °F 60.8 °F 78% 30.03 in 10.0 mi SSW 6.9 mph - N/A   Clear
12:35 AM 68.0 °F 60.8 °F 78% 30.03 in 10.0 mi SSW 5.8 mph - N/A   Clear
1:15 AM 66.2 °F 60.8 °F 83% 30.03 in 10.0 mi South 3.5 mph - N/A   Clear
1:35 AM 64.4 °F 60.8 °F 88% 30.04 in 10.0 mi Calm Calm - N/A   Clear
1:55 AM 64.4 °F 60.8 °F 88% 30.04 in 10.0 mi SSW 3.5 mph - N/A   Clear
2:15 AM 64.4 °F 60.8 °F 88% 30.03 in 10.0 mi Calm Calm - N/A   Clear
2:35 AM 64.4 °F 60.8 °F 88% 30.03 in 10.0 mi Calm Calm - N/A   Clear
2:55 AM 64.4 °F 59.0 °F 83% 30.02 in 10.0 mi Calm Calm - N/A   Clear
3:15 AM 64.4 °F 60.8 °F 88% 30.03 in 10.0 mi Calm Calm - N/A   Clear
3:35 AM 64.4 °F 59.0 °F 83% 30.02 in 10.0 mi Calm Calm - N/A   Clear
3:55 AM 64.4 °F 60.8 °F 88% 30.02 in 10.0 mi Calm Calm - N/A   Clear
4:15 AM 62.6 °F 59.0 °F 88% 30.02 in 10.0 mi Calm Calm - N/A   Clear
4:35 AM 62.6 °F 57.2 °F 82% 30.03 in 10.0 mi Calm Calm - N/A   Clear
4:55 AM 64.4 °F 59.0 °F 83% 30.03 in 10.0 mi Calm Calm - N/A   Clear
5:15 AM 64.4 °F 59.0 °F 83% 30.03 in 10.0 mi Calm Calm - N/A   Clear
5:35 AM 64.4 °F 60.8 °F 88% 30.03 in 10.0 mi Calm Calm - N/A   Clear
5:55 AM 64.4 °F 60.8 °F 88% 30.03 in 10.0 mi Calm Calm - N/A   Clear
6:15 AM 64.4 °F 59.0 °F 83% 30.03 in 10.0 mi Calm Calm - N/A   Clear
6:35 AM 62.6 °F 59.0 °F 88% 30.03 in 10.0 mi Calm Calm - N/A   Clear
6:55 AM 64.4 °F 60.8 °F 88% 30.03 in 10.0 mi Calm Calm - N/A   Clear
7:15 AM 69.8 °F 62.6 °F 78% 30.03 in 10.0 mi South 3.5 mph - N/A   Clear
7:35 AM 71.6 °F 60.8 °F 69% 30.03 in 10.0 mi SSW 4.6 mph - N/A   Clear
7:55 AM 71.6 °F 60.8 °F 69% 30.04 in 10.0 mi SW 5.8 mph - N/A   Clear
8:15 AM 71.6 °F 62.6 °F 73% 30.04 in 10.0 mi SSW 4.6 mph - N/A   Clear
8:35 AM 73.4 °F 60.8 °F 65% 30.04 in 10.0 mi South 4.6 mph - N/A   Clear
8:55 AM 73.4 °F 62.6 °F 69% 30.03 in 10.0 mi SSW 5.8 mph - N/A   Clear
9:15 AM 75.2 °F 62.6 °F 65% 30.03 in 10.0 mi SSW 6.9 mph - N/A   Clear
9:35 AM 75.2 °F 62.6 °F 65% 30.03 in 10.0 mi South 10.4 mph - N/A   Clear
9:55 AM 75.2 °F 60.8 °F 61% 30.03 in 10.0 mi South 8.1 mph - N/A   Clear
10:15 AM 75.2 °F 60.8 °F 61% 30.03 in 10.0 mi South 9.2 mph - N/A   Clear
11:55 AM 78.8 °F 64.4 °F 61% 30.01 in 10.0 mi South 10.4 mph - N/A   Scattered Clouds
12:15 PM 78.8 °F 64.4 °F 61% 30.01 in 10.0 mi South 11.5 mph - N/A   Overcast
1:55 PM 77.0 °F 64.4 °F 65% 29.99 in 10.0 mi South 11.5 mph - N/A   Overcast
2:15 PM 73.4 °F 66.2 °F 78% 29.99 in 7.0 mi South 10.4 mph - N/A   Mostly Cloudy
2:35 PM 73.4 °F 66.2 °F 78% 29.98 in 10.0 mi South 10.4 mph - 0.01 in   Mostly Cloudy
2:55 PM 73.4 °F 64.4 °F 73% 29.99 in 10.0 mi SSW 9.2 mph - 0.01 in   Overcast
3:15 PM 73.4 °F 64.4 °F 73% 29.99 in 10.0 mi South 8.1 mph - N/A   Overcast
3:35 PM 73.4 °F 66.2 °F 78% 29.98 in 10.0 mi South 11.5 mph - N/A   Overcast
3:55 PM 73.4 °F 66.2 °F 78% 29.97 in 10.0 mi South 10.4 mph - N/A   Overcast
4:15 PM 75.2 °F 68.0 °F 78% 29.97 in 10.0 mi South 11.5 mph - N/A   Mostly Cloudy
4:35 PM 78.8 °F 66.2 °F 65% 29.96 in 10.0 mi SSW 11.5 mph - N/A   Partly Cloudy
4:55 PM 78.8 °F 66.2 °F 65% 29.96 in 10.0 mi South 11.5 mph - N/A   Clear
5:15 PM 78.8 °F 66.2 °F 65% 29.96 in 10.0 mi South 11.5 mph - N/A   Clear
5:35 PM 78.8 °F 66.2 °F 65% 29.95 in 10.0 mi South 9.2 mph - N/A   Scattered Clouds
5:55 PM 78.8 °F 66.2 °F 65% 29.94 in 10.0 mi South 10.4 mph - N/A   Partly Cloudy
6:15 PM 78.8 °F 66.2 °F 65% 29.94 in 10.0 mi SSW 10.4 mph - N/A   Clear
6:35 PM 78.8 °F 64.4 °F 61% 29.94 in 10.0 mi South 9.2 mph - N/A   Clear
6:55 PM 77.0 °F 64.4 °F 65% 29.94 in 10.0 mi South 9.2 mph - N/A   Clear
7:15 PM 75.2 °F 64.4 °F 69% 29.94 in 10.0 mi South 9.2 mph - N/A   Clear
7:35 PM 75.2 °F 64.4 °F 69% 29.94 in 10.0 mi South 6.9 mph - N/A   Clear
7:55 PM 73.4 °F 64.4 °F 73% 29.94 in 10.0 mi South 9.2 mph - N/A   Clear
8:15 PM 73.4 °F 64.4 °F 73% 29.94 in 10.0 mi South 6.9 mph - N/A   Clear
8:35 PM 71.6 °F 64.4 °F 78% 29.94 in 10.0 mi South 8.1 mph - N/A   Clear
8:55 PM 71.6 °F 66.2 °F 83% 29.95 in 10.0 mi South 8.1 mph - N/A   Clear
9:15 PM 71.6 °F 66.2 °F 83% 29.94 in 10.0 mi South 8.1 mph - N/A   Clear
9:35 PM 71.6 °F 66.2 °F 83% 29.95 in 10.0 mi South 8.1 mph - N/A   Clear
9:55 PM 71.6 °F 66.2 °F 83% 29.95 in 10.0 mi South 8.1 mph - N/A   Clear
10:15 PM 71.6 °F 66.2 °F 83% 29.95 in 10.0 mi South 6.9 mph - N/A   Clear
10:35 PM 71.6 °F 66.2 °F 83% 29.95 in 10.0 mi South 9.2 mph - N/A   Clear
10:55 PM 73.4 °F 66.2 °F 78% 29.94 in 10.0 mi South 9.2 mph - N/A   Clear
11:15 PM 73.4 °F 66.2 °F 78% 29.94 in 10.0 mi South 9.2 mph - N/A   Clear
11:35 PM 73.4 °F 66.2 °F 78% 29.94 in 10.0 mi South 9.2 mph - N/A   Clear
11:55 PM 71.6 °F 66.2 °F 83% 29.95 in 10.0 mi SSW 9.2 mph - N/A   Clear